This is the latest recevied weather packets stored in our database for station/object W3AJR. If no packets are shown the sender has not sent any weather packets the latest 10 day(s).
| Time | Temp. | Humidity | Pressure | Rain* | Wind** | Luminosity | Snow |
|---|---|---|---|---|---|---|---|
| 1777600478 | 12.22° C | 60% | 1013.4 hPa | 0 mm | - | 0 W/m² | - |
| 1777600173 | 11.67° C | 62% | 1013.4 hPa | 0 mm | - | 0 W/m² | - |
| 1777599869 | 11.11° C | 63% | 1013.3 hPa | 0 mm | - | 0 W/m² | - |
| 1777599565 | 11.11° C | 63% | 1013.4 hPa | 0 mm | - | 0 W/m² | - |
| 1777599263 | 11.67° C | 62% | 1013.2 hPa | 0 mm | - | 0 W/m² | - |
| 1777598958 | 11.67° C | 62% | 1013.3 hPa | 0 mm | - | 0 W/m² | - |
| 1777598656 | 12.22° C | 61% | 1013.2 hPa | 0 mm | - | 0 W/m² | - |
| 1777598351 | 12.22° C | 60% | 1013.2 hPa | 0 mm | - | 0 W/m² | - |
| 1777598050 | 12.22° C | 60% | 1013.1 hPa | 0 mm | - | 0 W/m² | - |
| 1777597749 | 12.22° C | 59% | 1013 hPa | 0 mm | - | 0 W/m² | - |
| 1777597445 | 12.78° C | 59% | 1012.8 hPa | 0 mm | - | 0 W/m² | - |
| 1777597140 | 12.78° C | 59% | 1012.8 hPa | 0 mm | - | 0 W/m² | - |
| 1777596837 | 12.78° C | 58% | 1012.7 hPa | 0 mm | - | 0 W/m² | - |
| 1777596532 | 12.22° C | 59% | 1012.6 hPa | 0 mm | - | 0 W/m² | - |
| 1777596230 | 12.78° C | 58% | 1012.7 hPa | 0 mm | - | 0 W/m² | - |
| 1777595928 | 12.78° C | 57% | 1012.8 hPa | 0 mm | - | 0 W/m² | - |
| 1777595621 | 12.78° C | 57% | 1012.7 hPa | 0 mm | - | 0 W/m² | - |
| 1777595318 | 13.33° C | 56% | 1012.4 hPa | 0 mm | - | 0 W/m² | - |
| 1777595014 | 13.33° C | 55% | 1012.2 hPa | 0 mm | - | 0 W/m² | - |
| 1777594711 | 13.33° C | 55% | 1012.2 hPa | 0 mm | - | 0 W/m² | - |
| 1777594408 | 13.89° C | 54% | 1012.2 hPa | 0 mm | - | 0 W/m² | - |
| 1777594103 | 13.89° C | 54% | 1012 hPa | 0 mm | - | 0 W/m² | - |
| 1777593799 | 13.89° C | 53% | 1011.6 hPa | 0 mm | - | 1 W/m² | - |
| 1777593495 | 14.44° C | 54% | 1011.7 hPa | 0 mm | - | 3 W/m² | - |
| 1777593189 | 14.44° C | 52% | 1011.7 hPa | 0 mm | - | 5 W/m² | - |
* Rain latest hour (hover to see other rain measurements)
** Current wind speed in m/s (hover to see current wind gust speed)